Regional Weather Roundup
Issued by NWS

Home | Current Version | Previous Version | Text Only | Print | Product List | Glossary On
Versions: 1 2 3 4 5 6 7 8 9 10 11 12 13 14 15 16 17 18 19 20 21 22 23 24 25 26 27
000
ASUS44 KBMX 110410
RWRAL

ALABAMA REGIONAL WEATHER ROUNDUP
NATIONAL WEATHER SERVICE BIRMINGHAM AL
1000 PM CST SUN DEC 10 2017

NOTE: "FAIR" INDICATES FEW OR NO CLOUDS BELOW 12,000 FEET
WITH NO SIGNIFICANT WEATHER AND/OR OBSTRUCTIONS TO VISIBILITY.

THE REMARK "TC" DENOTES TEMPERATURE IN DEGREES CELSIUS.

ALZ001>011-014-016>018-020-110500-
NORTH ALABAMA

CITY           SKY/WX    TMP DP  RH WIND       PRES   REMARKS
MUSCLE SHOALS  CLEAR     35  25  66 SW3       30.23S
HUNTSVILLE     CLEAR     33  27  78 SE6       30.23S WCI  28
DECATUR        CLEAR     37  26  64 S5        30.24S WCI  33
HALEYVILLE     FAIR      37  25  61 SW6       30.25S WCI  32
GADSDEN        CLEAR     27  26  96 S3        30.28R
$$

ALZ012-013-022-023-030>036-040>044-110500-
WEST CENTRAL ALABAMA

CITY           SKY/WX    TMP DP  RH WIND       PRES   REMARKS
TUSCALOOSA     CLEAR     35  31  85 CALM      30.30R
DEMOPOLIS        N/A     36  31  83 S3        30.29F
$$

ALZ015-024>026-033>036-041>044-110500-
CENTRAL ALABAMA

CITY           SKY/WX    TMP DP  RH WIND       PRES   REMARKS
BIRMINGHAM     CLEAR     37  29  72 CALM      30.30R
MONTGOMERY     CLEAR     35  27  72 S6        30.31S WCI  30
SHELBY CO ARPT CLEAR     34  31  88 CALM      30.28R
MAXWELL AFB    CLEAR     33  32  97 CALM      30.29S
GREENVILLE     FAIR      32  27  81 CALM      30.29F
SELMA          FAIR      28  27  93 S3        30.30S
PRATTVILLE     FAIR      29  29  99 CALM      30.29F
BESSEMER       FAIR      39  28  64 SW6       30.28R WCI  35
TALLADEGA      FAIR      30  28  92 CALM      30.29R
PELL CITY      CLEAR     34  30  86 SW3       30.29R
MARION         FAIR      34  32  94 SW3       30.28F
SYLACAUGA      FAIR      31  31 100 CALM      30.29R
$$

ALZ019-021-028-029-037-038-045>048-110500-
EAST CENTRAL ALABAMA

CITY           SKY/WX    TMP DP  RH WIND       PRES   REMARKS
ANNISTON       CLEAR     29  25  85 CALM      30.28R
ALEXANDER CITY CLEAR     30  28  95 CALM      30.28R
AUBURN         NOT AVBL
$$

ALZ051>064-110500-
SOUTHWEST ALABAMA

CITY           SKY/WX    TMP DP  RH WIND       PRES   REMARKS
MOBILE         CLEAR     38  35  89 W3        30.35R
BROOKLEY FIELD CLEAR     38  38 100 W3        30.37R
EVERGREEN      CLEAR     31  29  92 CALM      30.33S
$$

ALZ049-050-065>069-110500-
SOUTHEAST ALABAMA

CITY           SKY/WX    TMP DP  RH WIND       PRES   REMARKS
DOTHAN         CLEAR     36  30  79 NW3       30.34S
OZARK          CLEAR     35  28  77 CALM      30.31S
TROY           CLEAR     30  30 100 CALM      30.31F
EUFAULA        FAIR      30  28  92 CALM      30.30S
$$




USA.gov is the U.S. government's official web portal to all federal, state and local government web resources and services.